Regional Weather Roundup
Issued by NWS Mt. Holly, NJ

Home | Current Version | Previous Version | Text Only | Print | Product List | Glossary On
Versions: 1 2 3 4 5 6 7 8 9 10 11 12 13 14 15 16 17 18 19 20 21 22 23 24 25 26 27
000
ASUS41 KPHI 221712
RWRPHI

REGIONAL WEATHER ROUNDUP
NATIONAL WEATHER SERVICE MOUNT HOLLY NJ
100 PM EDT SAT JUL 22 2017

NOTE:  "FAIR" INDICATES FEW OR NO CLOUDS BELOW 12,000 FEET WITH NO
SIGNIFICANT WEATHER AND/OR OBSTRUCTIONS TO VISIBILITY.

 * = STATION DOES NOT REPORT PRECIPITATION (E.G. RAIN, SNOW, ETC.)
        OR FOG.

NJZ015>026-221800-
SOUTHERN NEW JERSEY

CITY           SKY/WX    TMP DP  RH WIND       PRES   REMARKS
POMONA         PTSUNNY   89  75  63 SE6       29.85F HX  99
MILLVILLE      MOSUNNY   86  78  77 VRB3      29.86F HX  98
WRIGHTSTOWN    MOSUNNY   91  72  52 VRB3      29.85F HX  98
MOUNT HOLLY    SUNNY     90  68  48 VRB3      29.84F HX  94
TRENTON        SUNNY     89  66  46 VRB3      29.86F HX  91

$$
NJZ001>014-221800-
NORTHERN NEW JERSEY

CITY           SKY/WX    TMP DP  RH WIND       PRES   REMARKS
SUSSEX         MOSUNNY   82  64  54 VRB3      29.89S
ANDOVER*         N/A     83  61  47 VRB3      29.89F
MORRISTOWN     PTSUNNY   86  61  42 CALM      29.87F
NEWARK         PTSUNNY   88  54  31 VRB5      29.84F
TETERBORO      SUNNY     89  55  31 S6        29.84F
CALDWELL       SUNNY     89  60  37 VRB3      29.86F
SOMERVILLE     SUNNY     89  63  41 N3        29.85F HX  90
ALLAIRE*       SUNNY     86  65  49 SE8       29.88F
TOMS RIVER*    MOSUNNY   91  67  44 E7        29.86F HX  94

$$
PAZ043-044-047-054-055-060>062-066>071-221800-
EASTERN PENNSYLVANIA

CITY           SKY/WX    TMP DP  RH WIND       PRES   REMARKS
PHILADELPHIA   PTSUNNY   92  68  45 S7        29.86F HX  96
NORTH PHILA    SUNNY     91  68  46 VRB5      29.87F HX  95
BLUE BELL*     MOSUNNY   86  70  58 CALM      29.88F HX  90
DOYLESTOWN     PTSUNNY   86  68  54 CALM      29.87F
QUAKERTOWN*    MOSUNNY   88  68  51 W3        29.89F HX  91
PERKASIE*      FAIR      84  68  58 W3        29.89F
POTTSTOWN      SUNNY     86  67  52 CALM      29.89F
LANCASTER      PTSUNNY   88  72  58 CALM      29.87F HX  94
COATESVILLE    SUNNY     88  72  58 VRB5      29.90F HX  94
READING        MOSUNNY   87  69  54 VRB3      29.86F HX  91
ALLENTOWN      SUNNY     88  65  46 SW6       29.87F HX  90
MOUNT POCONO   CLOUDY    78  64  61 S5        29.95F
HAZLETON         N/A     86  63  45 CALM      29.96F
LEHIGHTON      FAIR      84  64  51 S3        29.89F
WILKES BARRE   CLOUDY    84  67  56 VRB5      29.90F

$$
DEZALL-MDZ008-012-015-019-020-221800-
DELAWARE AND EASTERN MARYLAND

CITY           SKY/WX    TMP DP  RH WIND       PRES   REMARKS
WILMINGTON     MOSUNNY   87  74  64 SE7       29.86F HX  95
GEORGETOWN     CLOUDY    90  75  61 NW5       29.86F HX 100
EASTON         PTSUNNY   91  75  59 CALM      29.90F HX 102
ABERDEEN       CLOUDY    87  74  63 CALM      29.87F HX  95
PATUXENT       CLOUDY    90  74  59 W8        29.87F HX  99
OCEAN CITY     MOSUNNY   89  76  65 W8        29.86F HX 100
WALLOPS ISLAND CLOUDY    89  79  72 W10       29.87F HX 104
CAMBRIDGE      PTSUNNY   88  79  74 CALM      29.86F HX 102
SALISBURY      MOSUNNY   90  75  62 W3        29.86F HX 100

$$
PAZ001-021-NYZ056-072-MDZ011-DCZ001-221800-
OTHER NEARBY LOCATIONS

CITY           SKY/WX    TMP DP  RH WIND       PRES   REMARKS
HARRISBURG     CLOUDY    88  71  57 S3        29.86F HX  94
STATE COLLEGE  MOSUNNY   81  70  69 SW7       29.91F
WILLIAMSPORT   CLOUDY    83  69  62 S7        29.87F
BINGHAMTON     MOSUNNY   74  63  68 W5        29.93S
NEW YORK CITY  SUNNY     90  61  37 VRB6      29.88F HX  90
BALTIMORE      CLOUDY    94  67  41 W8        29.86F HX  97
WASHINGTON DC  CLOUDY    93  70  46 CALM      29.87F HX  99

$$




USA.gov is the U.S. government's official web portal to all federal, state and local government web resources and services.